TimeEDT,TemperatureF,Dew PointF,Humidity,Sea Level PressureIn,VisibilityMPH,Wind Direction,Wind SpeedMPH,Gust SpeedMPH,PrecipitationIn,Events,Conditions,WindDirDegrees,DateUTC
12:51 AM,60.1,52.0,75,29.76,10.0,West,15.0,21.9,N/A,,Mostly Cloudy,270,2013-10-20 04:51:00
1:51 AM,59.0,46.0,62,29.77,10.0,West,20.7,26.5,N/A,,Scattered Clouds,270,2013-10-20 05:51:00
2:51 AM,57.0,44.1,62,29.78,10.0,West,16.1,-,N/A,,Partly Cloudy,270,2013-10-20 06:51:00
3:51 AM,55.9,42.1,60,29.80,10.0,West,16.1,24.2,N/A,,Partly Cloudy,260,2013-10-20 07:51:00
4:51 AM,54.0,41.0,62,29.82,10.0,WNW,11.5,-,N/A,,Partly Cloudy,290,2013-10-20 08:51:00
5:51 AM,53.1,39.9,61,29.84,10.0,WNW,12.7,20.7,N/A,,Partly Cloudy,290,2013-10-20 09:51:00
6:51 AM,52.0,39.0,61,29.87,10.0,West,12.7,19.6,N/A,,Scattered Clouds,270,2013-10-20 10:51:00
7:51 AM,51.1,39.0,63,29.91,10.0,West,9.2,-,N/A,,Partly Cloudy,260,2013-10-20 11:51:00
8:51 AM,53.1,39.0,59,29.93,10.0,NW,11.5,-,N/A,,Partly Cloudy,310,2013-10-20 12:51:00
9:51 AM,54.0,37.9,55,29.94,10.0,NW,12.7,19.6,N/A,,Partly Cloudy,320,2013-10-20 13:51:00
10:51 AM,55.9,36.0,47,29.95,10.0,WNW,11.5,20.7,N/A,,Partly Cloudy,300,2013-10-20 14:51:00
11:51 AM,57.9,36.0,44,29.96,10.0,NW,9.2,-,N/A,,Partly Cloudy,310,2013-10-20 15:51:00
12:51 PM,60.1,34.0,38,29.94,10.0,WNW,12.7,-,N/A,,Scattered Clouds,290,2013-10-20 16:51:00
1:51 PM,62.1,34.0,35,29.94,10.0,West,13.8,17.3,N/A,,Scattered Clouds,280,2013-10-20 17:51:00
2:51 PM,63.0,36.0,37,29.94,10.0,WNW,10.4,-,N/A,,Scattered Clouds,300,2013-10-20 18:51:00
3:51 PM,63.0,35.1,35,29.94,10.0,NW,13.8,-,N/A,,Partly Cloudy,310,2013-10-20 19:51:00
4:51 PM,63.0,34.0,34,29.95,10.0,NW,11.5,18.4,N/A,,Clear,310,2013-10-20 20:51:00
5:51 PM,62.1,30.9,31,29.97,10.0,WNW,13.8,-,N/A,,Partly Cloudy,300,2013-10-20 21:51:00
6:51 PM,61.0,34.0,36,29.99,10.0,NW,11.5,-,N/A,,Partly Cloudy,310,2013-10-20 22:51:00
7:51 PM,60.1,34.0,38,30.02,10.0,NW,9.2,-,N/A,,Clear,310,2013-10-20 23:51:00
8:51 PM,59.0,35.1,41,30.03,10.0,NW,9.2,-,N/A,,Clear,310,2013-10-21 00:51:00
9:51 PM,59.0,32.0,36,30.05,10.0,West,8.1,-,N/A,,Clear,260,2013-10-21 01:51:00
10:51 PM,57.9,32.0,37,30.06,10.0,West,9.2,-,N/A,,Clear,260,2013-10-21 02:51:00
11:51 PM,57.9,32.0,37,30.06,10.0,West,9.2,-,N/A,,Clear,260,2013-10-21 03:51:00